{"data":{"norad_id":39509,"epoch":"2026-09-20T03:24:57.070080Z","epoch_age_seconds":52784,"freshness":"FRESH","line1":"1 39509U 14006B   26263.14232720  .00000150  00000+0  00000+0 0  9991","line2":"2 39509   0.0089 153.4364 0001401  29.3664 265.2863  1.00270791 46039","mean_motion":1.00270791,"eccentricity":0.0001401,"inclination_deg":0.0089,"raan_deg":153.4364,"arg_perigee_deg":29.3664,"mean_anomaly_deg":265.2863,"bstar":0,"rev_number":4603,"period_min":1436.1111402821,"perigee_km":35780.966299788,"apogee_km":35792.780935763,"semimajor_km":42165.010617776,"source":"CELESTRAK","updated_at":"2026-09-20T09:00:35.209213Z"}}